Regional Weather Roundup
Issued by NWS

Home | Current Version | Previous Version | Text Only | Print | Product List | Glossary Off
Versions: 1 2 3 4 5 6 7 8 9 10 11 12 13 14 15 16 17 18 19 20 21 22 23 24 25 26 27 28 29 30 31 32 33 34 35 36 37 38 39 40 41 42 43 44 45 46 47 48 49 50

000
ASUS43 KMPX 220010
RWRMN
WEATHER ROUNDUP FOR MINNESOTA
NATIONAL WEATHER SERVICE TWIN CITIES/CHANHASSEN MN
600 PM CST FRI NOV 21 2014


NOTE: "FAIR" INDICATES FEW OR NO CLOUDS BELOW 12,000 FEET WITH NO
SIGNIFICANT WEATHER AND/OR OBSTRUCTIONS TO VISIBILITY. N/A MEANS
CURRENT SKY AND/OR WEATHER CONDITIONS ARE NOT AVAILABLE.

MNZ060>063-068>070-220100-
   Twin Cities Metro

CITY           SKY/WX    TMP DP  RH WIND       PRES   REMARKS
TWIN CITIES    CLOUDY    29  20  69 S14G24    29.98F WCI  18
6HR MIN TEMP:  24; 6HR MAX TEMP:  29;

ST PAUL        MOCLDY    28  20  71 S10       30.00F WCI  19
BLAINE         CLOUDY    28  21  74 S15       29.95F WCI  17
LAKEVILLE      MOCLDY    27  21  80 S12G18    29.98F WCI  16
EDEN PRAIRIE   CLOUDY    30  22  72 S15       29.95F WCI  19
6HR MIN TEMP:  27; 6HR MAX TEMP:  31;

SOUTH ST PAUL  CLOUDY    29  20  70 S8G16     29.99F WCI  21
LAKE ELMO      FAIR      28  21  74 S14       29.99F WCI  17
$$
MNZ001>005-007-008-013>017-022>024-027-028-220100-
   Northwest Minnesota

CITY           SKY/WX    TMP DP  RH WIND       PRES   REMARKS
BEMIDJI        MOCLDY    28  21  76 S13G18    29.71F WCI  17
HALLOCK        CLEAR     30  25  80 S21       29.56F WCI  17
ROSEAU         CLEAR     28  23  80 S26G32    29.56F WCI  13
WARROAD        PTCLDY    28  23  80 S13G23    29.57F WCI  18
THIEF RVR FALL CLEAR     28  23  80 S21G28    29.63S WCI  15
CROOKSTON      PTCLDY    28  25  86 S24       29.66F WCI  14
FOSSTON        MOCLDY    27  21  80 S22G29    29.68F WCI  12
DETROIT LAKES  MOCLDY    32  27  80 S13       29.75F WCI  22
MOORHEAD       MOCLDY    30  28  93 S15       29.74F WCI  19
PARK RAPIDS    MOCLDY    27  22  81 S14       29.76F WCI  16
MAHNOMEN       FAIR      28  23  80 S23       29.70F WCI  14
$$
MNZ006-009>011-018-025>026-220100-
   North Central Minnesota

CITY           SKY/WX    TMP DP  RH WIND       PRES   REMARKS
BAUDETTE       PTCLDY    30  21  69 S16G28    29.59S WCI  19
FLAG ISLAND    CLEAR     28  21  74 S20G26    29.54S WCI  15
INTL FALLS     MOCLDY    29  18  63 S12G22    29.63F WCI  19
6HR MIN TEMP:  26; 6HR MAX TEMP:  30;

WASKISH        MOCLDY    28  21  74 S8G17     29.65F WCI  20
BIG FORK       CLOUDY    28  19  69 S16G26    29.72F WCI  17
LONGVILLE      CLOUDY    28  21  74 S9        29.78F WCI  20
GRAND RAPIDS   CLOUDY    27  18  69 S16G25    29.77F WCI  14
CRANE LAKE     MOCLDY    27  19  74 S13G21    29.71F WCI  16
ORR            CLOUDY    27  18  69 S13G21    29.69F WCI  16
COOK           CLOUDY    27  19  74 S16G24    29.74F WCI  14
WALKER         FAIR      28  21  77 S15G22    29.74F WCI  16
$$
MNZ012-019>021-037-220100-
   Northeast Minnesota

CITY           SKY/WX    TMP DP  RH WIND       PRES   REMARKS
DULUTH         CLOUDY    26  16  65 SW15G23   29.83F WCI  14
6HR MIN TEMP:  22; 6HR MAX TEMP:  28;

ELY            MOCLDY    27  18  69 SW17G26   29.74F WCI  14
HIBBING        CLOUDY    28  18  66 SW13G25   29.78F WCI  17
EVELETH        CLOUDY    28  19  69 SW16G24   29.79F WCI  17
DULUTH HARBOR  CLOUDY    28  19  69 SW22G29   29.89F WCI  15
TWO HARBORS    CLOUDY    28  19  69 SW17G23   29.83F WCI  16
SILVER BAY     CLOUDY    28  19  69 SW14G23   29.81F WCI  17
GRAND MARAIS     N/A     34  27  75 SW36G43   29.81F WCI  19
G MARAIS ARPRT CLOUDY    25  19  80 S14G30    29.76F WCI  13
$$
MNZ029>031-032-039>041-046>048-054>057-064-220100-
   West Central Minnesota

CITY           SKY/WX    TMP DP  RH WIND       PRES   REMARKS
FERGUS FALLS   MOCLDY    30  25  80 S15       29.81F WCI  19
WHEATON        CLOUDY    30  27  86 S10       29.80F WCI  21
MORRIS         MOCLDY    27  25  93 S10       29.82S WCI  17
ALEXANDRIA     MOCLDY    30  24  78 S15       29.82F WCI  19
ELBOW LAKE       N/A     29  25  86 S17       29.79F WCI  17
WADENA         MOCLDY    28  23  80 S12       29.78F WCI  18
GLENWOOD       MOCLDY    30  25  80 S18       29.84F WCI  18
APPLETON       PTCLDY    32  27  80 SE9       29.84F WCI  24
BENSON         PTCLDY    28  25  86 S14       29.85F WCI  17
ORTONVILLE     MOCLDY    32  27  80 S7        29.82F WCI  26
MADISON        MOCLDY    36  28  75 S10       29.84F
WILLMAR        FAIR      30  25  80 S6        29.89F WCI  24
$$
MNZ033>034-036-042>043-049>051-058-059-220100-
   Central Minnesota

CITY           SKY/WX    TMP DP  RH WIND       PRES   REMARKS
ST CLOUD       MOCLDY    30  22  72 S17       29.90F WCI  18
6HR MIN TEMP:  25; 6HR MAX TEMP:  30;

SAUK CENTRE    FAIR      29  24  84 S13       29.85F WCI  18
PAYNESVILLE    CLOUDY    27  23  85 SE13G20   29.89S WCI  17
AITKIN         CLOUDY    30  21  69 S13G21    29.82F WCI  20
PINE RIVER     MOCLDY    27  21  80 S14       29.83F WCI  15
BRAINERD       CLOUDY    25  20  81 S14       29.84F WCI  13
STAPLES        MOCLDY    27  21  80 S9        29.81F WCI  17
LONG PRAIRIE   FAIR      28  23  80 SE12      29.83F WCI  18
LITTLE FALLS   MOCLDY    28  21  74 S8        29.86F WCI  20
LITCHFIELD     CLOUDY    30  27  86 S5        29.91S WCI  25
BUFFALO        MOCLDY    29  22  73 S9G18     29.94F WCI  21
MAPLE LAKE     MOCLDY    30  24  80 S9G18     29.93F WCI  21
$$
MNZ037-044-045-052-053-220100-
   East Central Minnesota

CITY           SKY/WX    TMP DP  RH WIND       PRES   REMARKS
PRINCETON      MOCLDY    28  21  74 S8        29.93F WCI  20
MORA             N/A    N/A N/A N/A MISG        N/A
CAMBRIDGE      MOCLDY    27  18  69 S7        29.92F WCI  19
RUSH CITY      MOCLDY    26  18  72 S8G16     29.95F WCI  17
MOOSE LAKE     CLOUDY    27  18  69 S12G17    29.86F WCI  16
HINCKLEY       FAIR      27  19  74 S13       29.93S WCI  16
CLOQUET        CLOUDY    25  18  74 S15G21    29.85F WCI  12
MCGREGOR       CLOUDY    30  21  69 S16G22    29.85F WCI  19
$$
MNZ071>073-080-081-089-090-097-098-220100-
   Southwest Minnesota

CITY           SKY/WX    TMP DP  RH WIND       PRES   REMARKS
MONTEVIDEO     PTCLDY    30  27  86 SW14      29.87F WCI  20
GRANITE FALLS  PTCLDY    30  25  82 SE6       29.90F WCI  24
CANBY          MOCLDY    36  29  76 SW20G28   29.83R
MARSHALL       MOCLDY    34  25  69 SW24G35   29.84S WCI  21
REDWOOD FALLS  PTCLDY    31  24  75 S12       29.91S WCI  22
OLIVIA         PTCLDY    32  27  80 S10       29.89F WCI  24
PIPESTONE      CLOUDY    30  27  86 S13       29.88F WCI  20
WINDOM         MOCLDY    32  27  80 S17G25    29.91F WCI  21
WORTHINGTON    CLOUDY    32  25  74 S21G28    29.92S WCI  20
JACKSON        MOCLDY    32  27  80 S22       29.94F WCI  19
TRACY          CLOUDY    34  27  76 SW26G32   29.85F WCI  21
SLAYTON        CLOUDY    32  27  83 S18       29.89F WCI  20
$$
MNZ065>067-074>077-082>085-091>093-220100-
   South Central Minnesota

CITY           SKY/WX    TMP DP  RH WIND       PRES   REMARKS
MANKATO        MOCLDY    28  19  69 S21G28    29.96F WCI  15
NEW ULM        PTCLDY    28  23  80 S18       29.93F WCI  16
ST JAMES       PTCLDY    30  25  80 S22       29.95S WCI  17
FAIRMONT       PTCLDY    28  21  74 SE21      29.95F WCI  15
GLENCOE        CLOUDY    30  25  81 S12       29.93F WCI  20
FARIBAULT      CLOUDY    28  21  74 S17       29.98F WCI  16
OWATONNA       CLOUDY    28  21  74 S24G31    29.99F WCI  14
WASECA         MOCLDY    30  21  69 S22       29.99F WCI  17
ALBERT LEA     MOCLDY    28  21  74 S13G21    30.02F WCI  18
$$
MNZ078>079-086>088-094>096-220100-
   Southeast Minnesota

CITY           SKY/WX    TMP DP  RH WIND       PRES   REMARKS
ROCHESTER      MOCLDY    25  18  74 S23G30    30.04F WCI  10
6HR MIN TEMP:  21; 6HR MAX TEMP:  25;

RED WING       PTCLDY    28  18  64 S9        30.03F WCI  20
STANTON        MOCLDY    29  21  71 S16G22    29.98F WCI  17
DODGE CENTER   MOCLDY    27  21  80 S23       30.01F WCI  12
WINONA         MOCLDY    30  18  59 SE8       30.11F WCI  23
AUSTIN         MOCLDY    27  19  74 S13G18    30.04F WCI  16
PRESTON        MOCLDY    25  17  71 S13       30.07F WCI  13
$$
ABBREVIATIONS USED IN REMARKS
   TC - TEMPERATURES IN CELSIUS
  WCI - WIND CHILL INDEX
   HX - HEAT INDEX
  VSB - VISIBILITY
$$


USA.gov is the U.S. government's official web portal to all federal, state and local government web resources and services.